Flag for Austria Weather past 2 weeks in Bruck an der Leitha, Lower Austria, Austria

Now
72 °F

Overcast.


Feels Like: 75 °F
Forecast: 57 / 71 °F
Wind: 8 mph from Southeast

Location: Wien / Schwechat-Flughafen

Current Time: May 5, 2015 at 1:22:11 PM

Latest Report: May 5, 2015 at 12:00 PM


Visibility: 17 mi

Pressure: 29.80 "Hg

Humidity: 66%

Dew point: 59 °F

Location of Bruck an der LeithaLocation

Historic Weather in Bruck an der Leitha — Graph

°F

Bruck an der Leitha temperature yesterday

Maximum temperature yesterday: 75 °F (at 3:00 PM)
Minimum temperature yesterday: 52 °F (at 1:00 AM)
Average temperature yesterday: 63 °F

Past Weeks' High & Low Weather Summary

 TemperatureHumidityPressure
High76 °F (Apr 27, 4:00 PM)99% (May 4, 4:00 AM)30.28 "Hg (May 4, 4:00 AM)
Low37 °F (Apr 30, 2:00 AM)23% (Apr 21, 6:00 PM)29.50 "Hg (Apr 28, 5:00 AM)
Average57 °F64%29.93 "Hg
* Reported Apr 20 12:00 Noon — May 5 12:00 Noon, Bruck an der Leitha, Weather by CustomWeather, © 2015

Note: Actual official high and low records may vary slightly from our data, if they occured in-between our weather recording intervals... More about our weather records

Advertising

Bruck an der Leitha weather history for previous 24 hours

 ConditionsComfort  
Time TempWeatherWind HumidityBarometerVisibility
12:00 PM
Tue, May 5
72 °FOvercast.8 mph66%29.80 "Hg17 mi
11:00 AM69 °FPartly sunny.6 mph71%29.82 "Hg11 mi
10:00 AM67 °FPartly sunny.6 mph75%29.81 "Hg9 mi
9:00 AM64 °FPartly sunny.5 mph81%29.83 "Hg11 mi
8:00 AM61 °FOvercast.5 mph87%29.84 "Hg7 mi
7:00 AM58 °FOvercast.5 mph95%29.83 "Hg2 mi
6:00 AM58 °FOvercast.5 mph95%29.83 "Hg2 mi
5:00 AM59 °FPassing clouds.5 mph94%29.83 "Hg3 mi
4:00 AM60 °FPassing clouds.5 mph92%29.84 "Hg3 mi
3:00 AM60 °FPassing clouds.3 mph93%29.85 "Hg3 mi
2:00 AM61 °FPassing clouds.N/A91%29.87 "Hg4 mi
1:00 AM62 °FPassing clouds.N/A89%29.88 "Hg4 mi
12:00 AM64 °FPassing clouds.5 mph84%29.88 "Hg5 mi
11:00 PM
Mon, May 4
65 °FOvercast.5 mph81%29.90 "Hg6 mi
10:00 PM66 °FOvercast.N/A82%29.91 "Hg4 mi
9:00 PM67 °FOvercast.3 mph79%29.90 "Hg6 mi
8:00 PM68 °FOvercast.N/A77%29.89 "Hg5 mi
7:00 PM71 °FOvercast.N/A66%29.88 "Hg19 mi
6:00 PM71 °FRain showers. Overcast.3 mph66%29.89 "Hg22 mi
5:00 PM72 °FRain showers. Overcast.3 mph64%29.89 "Hg19 mi
4:00 PM71 °FOvercast.6 mph66%29.89 "Hg16 mi
3:00 PM75 °FOvercast.N/A51%29.88 "Hg12 mi
2:00 PM74 °FOvercast.5 mph52%29.88 "Hg22 mi
1:00 PM73 °FOvercast.7 mph59%29.90 "Hg19 mi
Weather by CustomWeather, © 2015

See weather overviewHow to use our weather pages